User: anonymous   Login
Location: Fort Wayne
(41.1310°N, 85.1290°W)
Time: 12:58:57
(UTC-05:00)
Language:

Cosmos 2082 - Orbit

View from above orbital plane
View from above orbital plane
View from above satellite
View from above satellite

Ground track
Ground track

The orbit data is extracted from the following two-line orbital elements,

1 20624U 90046A   18055.28150286 +.00000133 +00000-0 +94421-4 0  9995
2 20624 071.0414 046.9188 0015172 353.6487 006.4440 14.14247439432614
Epoch (UTC): 24 February 2018 06:45:21
Eccentricity: 0.0015172
inclination: 71.0414°
perigee height: 834 km
apogee height: 856 km
right ascension of ascending node: 46.9188°
argument of perigee: 353.6487°
revolutions per day: 14.14247439
mean anomaly at epoch: 6.4440°
orbit number at epoch: 43261

The dashed part of the orbit path shows where the satellite is in the earth's shadow,  

DLR